Wind_Speed
14 14 13 16 15 17 18 19 19 20 19 19 18 18 20 19 19 16 13 7 12 6 8 14 16 7 6 7 4 5 3 2 2 2 2 3 3 2 3 2 3 6 5 4 4 4 3 3 3 3 4 11 10 6
15 14 14 16 17 16 19 18 19 19 20 19 20 20 18 18 16 16 13 14 14 10 5 11 12 15 15 10 9 10 0 4 5 3 3 2 3 3 3 2 3 4 5 2 5 3 2 3 8 8 7 8 6 2
15 14 14 17 20 17 20 20 20 20 20 20 19 20 20 19 17 15 16 16 12 5 4 7 8 12 12 12 11 5 4 6 6 6 1 2 4 0 3 4 2 5 5 3 3 3 5 5 5 6 9 4 3 4
16 13 13 17 22 18 19 21 22 21 21 21 20 21 20 19 18 15 15 12 10 6 3 1 8 9 13 13 13 13 9 8 6 7 3 3 2 3 2 2 3 1 5 5 5 9 9 5 4 4 5 5 9 12
16 13 13 17 22 20 18 21 22 22 22 22 21 23 19 19 18 17 12 6 9 6 3 2 2 8 11 13 15 15 14 11 6 3 3 3 3 1 3 2 5 6 5 3 2 1 2 3 1 2 5 7 10 16
16 14 14 17 23 20 20 22 23 23 23 24 23 24 20 20 18 12 1 11 12 10 3 2 0 2 7 8 8 10 12 11 5 4 3 5 9 3 3 4 7 15 13 8 2 1 2 2 4 5 9 10 13 18
16 15 14 17 23 23 20 22 23 23 25 26 27 25 25 21 14 11 4 7 10 7 3 1 2 0 2 3 3 5 8 6 7 3 4 4 4 6 2 8 7 8 10 12 12 6 2 7 3 9 12 15 17 21
17 16 15 17 23 25 20 22 24 25 27 29 29 22 9 3 6 10 11 11 4 3 2 1 0 1 6 3 3 6 5 6 6 4 4 2 3 3 5 12 20 18 14 11 13 13 5 7 11 14 15 20 23 25
19 15 16 17 22 24 22 22 23 26 30 30 14 4 6 4 3 4 7 11 6 5 3 2 2 1 5 2 4 4 2 2 3 2 2 2 3 5 11 11 11 11 9 6 13 12 9 11 17 19 21 24 26 27
20 15 15 17 21 21 23 21 24 27 30 11 4 4 3 1 3 5 3 3 6 7 4 2 3 1 3 2 1 0 1 1 2 1 3 3 4 20 23 16 15 10 9 12 13 10 14 17 22 23 24 25 26 29
21 15 13 17 19 19 21 21 25 29 19 8 7 4 6 5 4 2 1 3 5 2 6 3 9 3 8 3 3 2 1 0 2 0 2 2 4 3 5 11 14 20 19 10 13 11 17 16 25 27 27 27 31 30
19 13 13 16 18 18 20 22 25 24 9 5 5 5 4 2 2 0 1 2 2 2 4 2 2 4 3 3 1 1 1 1 4 3 2 3 3 5 12 10 9 10 15 12 13 6 11 14 24 28 29 29 30 29
17 12 12 16 17 17 18 22 24 11 3 1 2 2 3 2 3 3 5 2 2 5 5 1 1 4 3 3 2 2 3 3 1 2 3 4 6 10 10 9 4 10 13 13 12 8 13 17 24 26 29 30 31 30
14 12 12 15 17 14 18 21 19 3 2 2 2 3 1 2 2 2 2 2 4 3 8 2 1 2 1 2 1 2 1 1 2 3 5 2 5 11 9 5 2 9 14 14 12 12 15 20 27 27 29 32 32 31
12 12 12 15 12 14 17 18 9 3 1 1 1 2 2 2 1 3 5 6 5 7 10 2 2 2 1 1 1 2 2 4 5 4 3 4 8 8 5 3 3 10 13 13 13 15 19 25 28 30 32 32 30 29
10 13 11 7 10 14 16 11 3 3 2 0 1 2 1 2 1 2 3 5 8 10 3 3 1 1 4 2 3 6 3 5 3 3 6 7 6 5 4 2 4 10 13 13 14 17 22 28 31 34 34 32 30 29
8 12 6 9 11 14 14 3 3 3 2 2 2 2 1 1 3 2 3 3 11 7 0 1 3 2 1 1 3 4 4 3 12 18 13 11 7 5 3 2 5 10 14 14 15 19 25 29 32 35 35 33 30 28
15 13 11 10 9 11 7 3 3 4 3 4 2 4 4 4 4 4 2 4 7 6 6 1 1 3 3 4 2 3 6 22 18 17 18 15 11 8 5 4 7 10 13 16 18 21 25 30 35 36 34 33 31 29
10 12 10 8 8 5 4 2 3 4 5 3 4 5 4 5 8 8 6 3 4 6 8 4 4 3 3 2 2 6 12 12 18 27 21 17 15 10 8 8 9 12 14 16 19 23 28 34 36 36 36 35 34 32
13 12 11 9 6 3 4 3 3 4 3 1 3 4 4 5 6 7 6 1 2 2 3 3 2 3 5 7 13 18 17 18 19 24 21 12 13 12 10 11 12 14 16 18 22 26 31 32 33 34 34 32 32 32
13 12 12 8 5 7 4 3 3 4 3 2 2 4 4 4 4 2 2 2 5 5 3 3 3 9 15 17 17 19 21 19 19 18 23 26 15 15 13 13 14 16 19 23 25 28 31 35 38 36 32 32 31 28
9 8 6 6 5 4 3 3 2 3 2 2 1 3 3 2 2 2 5 3 4 5 4 5 11 16 20 20 20 18 20 19 19 19 18 22 22 19 19 18 18 20 21 23 26 31 35 36 38 34 31 31 29 29
8 8 5 6 5 5 3 4 3 2 2 1 1 2 2 2 2 3 3 5 6 8 6 5 10 14 19 20 17 16 16 18 20 19 18 18 22 22 21 21 21 23 24 25 27 31 35 37 36 32 34 33 32 31
9 5 5 6 6 3 4 3 2 1 2 1 2 3 2 2 4 1 4 4 7 8 6 5 14 23 24 23 22 20 17 17 19 20 17 18 20 22 20 21 22 23 24 26 28 32 36 39 37 37 36 35 34 32
4 5 5 2 5 3 2 2 1 1 3 3 3 3 2 1 1 3 3 4 9 12 9 11 18 23 25 29 28 24 18 17 19 22 18 15 17 18 19 19 21 24 24 27 31 35 38 40 38 38 37 35 34 32
5 6 6 7 3 4 4 4 5 5 2 3 5 2 1 2 1 5 3 4 8 12 12 17 25 30 30 26 26 27 23 18 20 23 21 17 17 18 19 21 24 27 26 28 32 39 42 42 40 38 37 35 32 30
5 5 5 5 5 7 3 3 4 2 4 5 3 3 2 2 5 4 6 9 10 11 17 24 26 28 31 31 26 24 23 20 20 23 20 18 16 17 18 22 27 28 28 29 33 40 42 40 40 38 38 35 31 27
5 9 7 11 5 5 4 3 5 6 4 7 7 4 6 7 5 4 6 10 14 22 25 27 26 27 29 27 25 24 23 19 18 18 18 18 18 17 18 18 21 21 27 30 31 36 38 38 36 38 36 34 31 26
6 9 12 3 3 4 8 7 5 8 8 13 5 4 5 7 9 12 16 21 24 27 29 27 25 22 24 24 23 22 19 17 16 16 17 17 15 17 16 15 17 23 28 30 33 37 39 34 37 36 34 33 30 27
8 16 5 5 6 6 6 11 4 6 10 10 6 6 10 18 23 23 24 27 29 25 22 23 22 22 22 21 21 17 14 16 18 20 19 18 17 15 16 18 21 25 31 35 39 41 41 43 41 38 37 32 29 28
12 14 4 6 4 4 6 10 8 6 6 7 13 14 17 16 27 27 21 20 16 17 19 18 16 16 18 17 17 17 16 10 12 16 21 16 12 14 19 23 25 29 34 39 43 43 44 44 43 39 33 30 29 24
8 9 6 3 2 3 5 7 5 4 3 4 5 6 6 5 6 8 9 9 11 13 13 16 19 19 17 17 15 14 14 13 12 10 14 15 14 15 21 24 27 32 35 38 40 45 45 43 39 35 33 31 27 23
5 5 4 4 3 3 5 4 1 2 3 3 3 3 4 4 7 5 6 7 8 9 11 13 13 11 10 8 6 6 5 5 4 7 10 12 15 20 25 28 31 37 42 46 45 43 40 38 36 34 30 28 25 23
Wind_Direction
324 324 334 332 332 336 340 346 346 347 350 349 345 339 339 347 354 349 338 346 6 290 278 201 206 169 159 172 145 143 153 174 155 222 241 235 244 243 267 233 189 204 191 208 212 246 293 193 260 322 340 321 324 355
315 322 329 329 322 328 326 332 336 340 342 343 342 339 336 333 341 344 332 318 329 245 265 212 209 215 216 228 198 181 350 139 159 223 226 301 237 225 265 270 183 227 231 289 229 259 356 259 265 289 307 292 300 287
313 317 327 326 321 323 319 320 324 329 334 340 342 333 327 326 327 333 325 314 337 292 280 210 213 216 225 221 201 164 209 190 195 206 285 243 264 301 236 236 271 222 207 249 293 209 257 276 284 300 326 307 247 186
310 313 324 323 317 319 320 316 317 320 324 327 332 332 327 323 321 317 316 309 307 291 277 250 219 219 219 216 218 230 227 194 204 193 219 238 268 222 258 305 259 340 170 219 250 282 292 268 281 318 7 77 125 144
308 309 323 321 316 320 321 316 313 316 317 318 322 321 325 316 316 306 302 276 261 225 321 309 233 224 226 226 227 230 235 225 195 200 214 228 227 171 216 272 241 196 221 222 294 116 287 351 104 88 105 120 136 144
310 309 320 320 320 322 321 316 315 315 316 314 315 313 313 307 306 313 143 135 174 188 254 233 244 228 208 208 212 220 221 224 209 206 225 242 237 227 236 247 243 215 227 234 293 292 244 215 148 136 130 135 143 141
313 313 319 323 314 324 320 314 317 319 315 314 311 311 305 291 266 232 224 161 183 195 237 284 359 306 191 183 194 205 202 211 213 237 223 244 270 201 255 253 253 239 240 239 241 225 207 180 200 160 152 146 147 138
318 313 317 320 313 320 322 319 321 321 318 316 314 313 312 286 212 232 249 251 225 255 241 176 180 239 183 185 204 194 203 206 215 234 233 235 198 230 255 244 249 252 249 241 228 217 216 189 173 161 157 153 149 142
313 310 317 320 311 319 325 322 323 323 328 323 328 65 78 78 110 159 201 233 240 272 295 154 164 200 189 231 195 185 220 232 226 243 236 221 188 228 239 255 255 245 230 237 204 200 197 182 173 166 162 160 155 150
306 306 311 313 312 318 325 325 327 333 338 349 68 76 100 136 332 95 194 200 203 195 231 230 144 183 196 177 156 197 199 288 271 240 306 233 256 254 260 259 262 265 286 225 178 175 182 184 180 172 169 165 162 157
303 302 308 306 314 319 323 325 333 338 352 16 31 16 27 118 100 157 286 221 178 201 184 215 197 178 208 174 195 206 205 291 263 97 277 266 260 246 283 289 274 255 251 254 224 247 228 212 183 172 171 171 167 160
300 295 304 305 309 317 321 328 335 336 330 355 337 342 10 21 84 277 259 281 134 183 168 180 217 209 199 192 151 157 214 209 250 345 275 259 253 274 323 312 302 219 213 226 213 236 202 198 186 180 175 170 164 163
297 291 303 302 307 315 321 329 337 336 17 63 18 336 27 347 81 37 353 356 80 360 12 68 186 196 170 185 91 159 221 239 8 256 248 246 289 316 326 321 302 185 184 193 193 198 185 181 182 181 172 170 166 164
293 290 297 297 304 311 323 330 341 29 336 83 7 47 21 67 78 43 342 312 302 300 337 302 255 206 169 115 132 215 167 287 254 249 242 254 287 321 329 317 238 185 180 183 188 183 178 176 172 174 173 169 168 165
285 284 288 291 287 309 322 331 346 41 322 84 294 127 92 49 256 355 343 320 349 328 325 224 246 213 120 151 188 102 204 242 227 236 240 279 317 329 341 321 213 191 186 183 183 180 176 172 171 169 170 170 170 166
272 283 283 256 289 311 322 329 11 93 304 199 120 136 138 124 283 32 352 312 4 339 304 229 172 170 228 169 164 211 194 233 263 237 286 316 326 330 333 314 197 188 188 188 183 179 176 173 172 169 168 169 170 170
237 256 266 277 302 312 320 290 118 91 278 233 208 178 162 206 223 268 318 306 328 323 289 323 211 192 53 239 250 190 217 333 330 326 321 314 319 321 312 250 195 188 188 189 186 180 178 175 172 169 166 167 169 165
233 260 272 285 300 311 299 212 125 122 226 243 228 217 211 258 264 285 285 310 336 337 321 334 262 216 219 212 241 19 335 330 341 331 324 318 311 297 270 226 190 187 188 186 186 182 179 175 172 171 168 165 164 162
255 267 270 279 304 309 253 201 157 135 216 216 243 255 251 261 266 274 291 299 289 273 295 288 245 217 218 197 261 314 323 329 320 326 316 308 302 285 259 227 199 189 189 188 181 179 177 179 178 172 168 165 166 167
236 252 268 277 273 266 246 187 179 124 183 201 226 249 252 270 284 286 294 304 276 257 239 229 262 33 18 340 323 313 312 322 324 324 322 338 309 282 252 233 213 194 187 184 184 184 181 177 176 174 173 170 174 170
234 252 260 243 241 232 256 212 136 144 181 198 231 280 274 281 283 274 225 188 220 220 220 245 281 310 318 317 318 315 309 310 304 305 306 296 309 295 254 230 218 205 196 190 187 182 182 180 176 173 171 182 178 174
221 220 205 208 228 223 218 204 143 161 173 115 220 259 260 267 266 227 283 233 237 238 243 279 305 314 315 314 311 306 304 301 297 291 297 287 282 290 260 235 219 210 204 201 193 187 184 180 177 175 179 176 173 171
190 194 202 211 197 200 194 179 194 185 143 221 257 261 241 254 244 297 250 227 241 226 233 301 331 333 323 319 310 302 299 297 293 291 286 283 276 279 266 242 228 220 210 201 200 194 185 180 177 180 177 175 171 168
171 186 204 196 193 171 159 154 166 171 124 159 213 264 238 243 321 274 252 254 217 204 220 306 335 335 332 327 321 314 302 294 292 285 284 277 269 275 269 246 232 225 221 212 199 193 186 181 180 179 175 175 174 170
177 213 197 192 178 133 150 123 79 144 220 190 194 265 244 357 275 259 246 265 224 216 238 301 319 324 319 317 314 311 308 296 288 288 277 278 268 258 260 246 231 226 219 210 198 192 187 183 179 179 178 177 172 170
214 197 174 190 170 182 171 149 188 196 158 185 226 252 95 128 227 247 238 238 231 225 265 299 313 314 311 310 306 304 304 295 283 278 277 274 266 257 250 244 227 217 212 211 206 192 187 182 180 179 176 174 173 169
215 218 193 184 160 139 105 96 125 143 178 201 189 155 124 193 240 249 240 242 255 276 296 305 306 305 303 302 301 296 293 288 277 273 272 263 260 255 248 244 237 228 213 205 204 198 189 180 179 177 173 171 170 170
205 169 181 177 158 164 136 149 175 203 203 178 140 180 192 201 231 214 230 276 294 305 306 307 305 303 297 296 296 293 290 284 274 268 262 256 254 248 238 237 236 232 216 206 198 189 185 181 179 178 173 165 161 162
183 174 152 132 138 191 210 191 209 209 186 175 171 207 234 225 259 277 289 299 303 302 304 304 305 297 291 293 290 289 284 276 266 257 253 252 250 240 225 220 217 216 208 196 188 181 179 176 175 168 167 164 157 159
183 171 143 165 168 210 214 199 209 193 192 202 225 256 265 271 282 289 292 298 299 298 300 303 304 300 299 295 293 284 272 265 251 242 241 249 249 245 221 208 204 204 196 186 179 176 175 171 167 165 165 165 163 165
160 174 128 169 218 207 203 200 204 216 229 240 244 254 265 286 289 295 294 292 287 295 301 302 302 302 299 296 296 295 293 273 261 245 229 238 252 234 213 201 196 193 188 183 177 171 165 163 166 166 159 157 161 158
158 175 145 174 234 187 174 187 194 219 240 238 241 245 278 273 276 282 278 278 298 305 306 309 313 313 300 290 285 282 283 272 276 246 221 230 233 210 198 190 185 183 179 172 166 164 166 163 158 152 156 161 155 155
121 135 131 121 123 181 177 172 174 297 249 265 265 259 241 250 254 262 276 283 302 311 323 340 335 335 345 340 312 302 302 287 248 219 216 214 202 189 185 180 176 174 171 167 161 157 158 153 148 156 157 155 154 153
Height
1474 1472 1470 1468 1465 1461 1459 1454 1451 1447 1443 1439 1437 1434 1431 1427 1424 1423 1421 1419 1420 1416 1409 1409 1411 1412 1415 1416 1416 1423 1426 1426 1427 1428 1426 1420 1416 1409 1409 1405 1404 1403 1408 1411 1406 1405 1394 1384 1383 1380 1378 1375 1373 1371
1472 1468 1466 1465 1461 1458 1457 1453 1449 1445 1441 1437 1434 1432 1429 1426 1425 1422 1419 1417 1415 1414 1408 1407 1409 1411 1413 1414 1417 1419 1420 1420 1423 1425 1422 1420 1415 1411 1406 1398 1405 1404 1397 1392 1393 1383 1380 1381 1379 1378 1378 1377 1374 1372
1468 1464 1462 1461 1459 1454 1452 1451 1447 1443 1438 1434 1431 1429 1425 1422 1420 1418 1415 1414 1411 1409 1407 1407 1407 1409 1411 1413 1414 1417 1419 1419 1420 1420 1420 1418 1415 1413 1403 1399 1399 1398 1398 1394 1392 1380 1379 1378 1377 1376 1374 1374 1372 1372
1464 1459 1456 1455 1455 1450 1448 1448 1445 1440 1436 1431 1428 1426 1422 1419 1417 1415 1413 1413 1413 1412 1409 1405 1405 1406 1408 1410 1412 1414 1415 1416 1418 1418 1417 1416 1414 1410 1401 1401 1399 1394 1397 1390 1386 1379 1377 1377 1377 1375 1374 1373 1372 1373
1460 1456 1451 1450 1449 1445 1442 1443 1441 1436 1432 1428 1424 1421 1418 1416 1414 1411 1409 1409 1410 1413 1408 1404 1404 1405 1406 1408 1409 1411 1413 1414 1415 1415 1414 1411 1408 1410 1404 1404 1393 1389 1383 1381 1375 1379 1378 1377 1376 1376 1376 1376 1377 1376
1456 1452 1448 1446 1444 1441 1438 1437 1436 1431 1427 1422 1419 1416 1413 1411 1410 1409 1407 1406 1405 1407 1408 1404 1404 1404 1405 1406 1407 1408 1410 1411 1412 1411 1409 1405 1404 1404 1396 1387 1378 1377 1376 1378 1377 1378 1378 1377 1377 1377 1378 1379 1380 1380
1451 1447 1445 1442 1442 1438 1433 1431 1429 1425 1420 1416 1412 1407 1405 1403 1404 1406 1405 1403 1404 1405 1405 1403 1403 1403 1404 1405 1406 1407 1408 1409 1410 1407 1405 1403 1400 1399 1395 1383 1373 1373 1374 1375 1376 1377 1378 1377 1378 1378 1379 1381 1384 1384
1446 1443 1441 1439 1438 1435 1428 1427 1424 1419 1413 1408 1403 1397 1395 1395 1398 1400 1400 1401 1403 1403 1403 1402 1404 1405 1404 1404 1405 1405 1406 1406 1404 1403 1401 1398 1396 1395 1384 1370 1369 1371 1371 1371 1372 1374 1375 1375 1377 1378 1380 1382 1386 1387
1442 1439 1436 1435 1435 1432 1425 1423 1419 1412 1406 1400 1394 1394 1394 1396 1398 1398 1399 1400 1401 1407 1402 1401 1402 1402 1403 1402 1403 1403 1403 1401 1401 1398 1396 1396 1388 1385 1367 1365 1365 1365 1366 1367 1369 1371 1373 1375 1376 1378 1381 1384 1386 1389
1438 1434 1432 1432 1430 1427 1423 1420 1414 1408 1402 1396 1394 1394 1395 1397 1396 1397 1400 1400 1401 1400 1401 1400 1400 1401 1403 1401 1401 1402 1402 1401 1400 1397 1395 1391 1379 1369 1364 1364 1363 1363 1364 1364 1367 1369 1370 1373 1375 1378 1381 1385 1388 1390
1434 1430 1428 1430 1426 1424 1420 1417 1411 1405 1401 1397 1396 1397 1396 1396 1396 1397 1397 1397 1397 1398 1398 1398 1398 1398 1400 1400 1399 1402 1401 1403 1399 1397 1395 1384 1371 1362 1360 1359 1358 1358 1361 1362 1364 1366 1367 1369 1371 1376 1380 1384 1387 1393
1429 1427 1424 1426 1424 1419 1416 1413 1408 1405 1402 1400 1399 1398 1397 1396 1396 1398 1396 1393 1393 1394 1395 1396 1398 1399 1399 1399 1399 1403 1402 1403 1396 1399 1396 1381 1363 1360 1358 1356 1353 1353 1356 1360 1362 1364 1365 1367 1371 1375 1379 1384 1390 1394
1424 1423 1421 1423 1420 1416 1414 1410 1405 1402 1401 1400 1400 1399 1398 1399 1398 1397 1398 1393 1393 1397 1397 1396 1397 1397 1399 1399 1400 1401 1400 1397 1399 1396 1386 1369 1361 1359 1357 1355 1353 1353 1355 1358 1360 1362 1364 1366 1370 1375 1380 1387 1391 1396
1420 1418 1417 1419 1415 1412 1411 1407 1402 1401 1402 1400 1400 1401 1399 1399 1401 1402 1402 1402 1401 1399 1398 1397 1396 1397 1397 1398 1400 1399 1399 1400 1397 1392 1378 1364 1360 1358 1356 1355 1354 1355 1356 1358 1360 1361 1363 1366 1371 1376 1382 1386 1391 1396
1415 1414 1415 1414 1412 1410 1408 1405 1400 1400 1402 1400 1401 1401 1400 1402 1402 1401 1402 1402 1400 1399 1397 1397 1396 1397 1397 1398 1398 1399 1399 1393 1387 1374 1366 1361 1360 1358 1356 1355 1355 1356 1358 1359 1361 1362 1364 1368 1372 1377 1383 1388 1394 1398
1411 1411 1410 1410 1409 1407 1405 1402 1399 1400 1403 1401 1400 1400 1400 1402 1402 1402 1403 1402 1400 1398 1396 1396 1395 1395 1393 1393 1396 1392 1392 1383 1371 1369 1363 1361 1360 1358 1357 1356 1356 1357 1358 1360 1362 1364 1366 1369 1373 1377 1384 1390 1395 1399
1407 1408 1407 1407 1406 1405 1402 1401 1398 1400 1405 1402 1400 1399 1399 1400 1401 1401 1402 1401 1399 1397 1394 1394 1392 1388 1395 1393 1392 1386 1381 1377 1376 1370 1367 1364 1361 1360 1358 1357 1356 1357 1359 1360 1362 1365 1368 1371 1376 1379 1384 1390 1396 1401
1404 1405 1404 1404 1403 1401 1399 1398 1397 1397 1403 1402 1401 1399 1399 1399 1398 1398 1399 1399 1398 1397 1396 1393 1394 1391 1388 1386 1382 1386 1384 1379 1375 1371 1367 1366 1364 1362 1359 1357 1356 1358 1359 1360 1362 1365 1370 1373 1377 1381 1386 1391 1397 1402
1400 1401 1401 1401 1401 1399 1399 1396 1395 1396 1401 1400 1400 1400 1398 1397 1396 1395 1395 1395 1397 1398 1397 1394 1391 1385 1382 1384 1385 1384 1383 1379 1374 1369 1366 1365 1364 1362 1361 1359 1357 1357 1359 1361 1363 1366 1370 1374 1377 1382 1386 1391 1395 1401
1395 1396 1398 1398 1398 1398 1397 1394 1392 1392 1398 1400 1399 1399 1397 1395 1394 1392 1392 1392 1394 1395 1394 1390 1385 1384 1385 1386 1385 1383 1380 1377 1373 1367 1365 1363 1362 1362 1361 1360 1359 1358 1358 1360 1363 1366 1369 1375 1381 1385 1389 1393 1397 1401
1390 1392 1394 1394 1395 1396 1395 1392 1390 1392 1395 1396 1398 1398 1395 1393 1392 1391 1391 1391 1393 1390 1387 1385 1385 1384 1384 1382 1381 1379 1377 1375 1371 1369 1365 1361 1361 1361 1360 1360 1360 1359 1359 1360 1362 1365 1370 1374 1377 1384 1389 1394 1399 1403
1386 1388 1390 1391 1392 1392 1392 1391 1391 1392 1394 1394 1396 1397 1395 1392 1391 1390 1389 1389 1386 1382 1382 1382 1382 1381 1379 1377 1375 1374 1372 1369 1367 1364 1362 1360 1358 1358 1358 1358 1358 1358 1358 1360 1362 1363 1367 1372 1378 1383 1389 1394 1399 1403
1383 1385 1387 1388 1389 1389 1391 1390 1392 1391 1392 1394 1394 1395 1393 1391 1388 1388 1387 1383 1379 1377 1378 1379 1379 1377 1375 1372 1369 1368 1366 1363 1360 1358 1357 1355 1355 1355 1355 1355 1355 1357 1358 1359 1361 1364 1367 1372 1377 1382 1387 1393 1398 1402
1381 1383 1383 1382 1384 1386 1387 1387 1389 1392 1391 1392 1393 1392 1390 1389 1388 1387 1383 1376 1372 1373 1374 1375 1373 1371 1369 1367 1364 1362 1360 1358 1354 1352 1350 1349 1348 1350 1351 1351 1351 1353 1356 1358 1359 1363 1367 1371 1375 1380 1386 1390 1396 1401
1381 1381 1381 1381 1381 1382 1385 1386 1388 1390 1391 1393 1392 1390 1388 1389 1388 1386 1379 1370 1367 1369 1370 1370 1369 1367 1365 1360 1357 1355 1355 1352 1349 1346 1344 1344 1342 1341 1344 1346 1347 1349 1352 1354 1356 1359 1364 1369 1374 1379 1384 1389 1394 1400
1376 1373 1374 1372 1377 1377 1377 1381 1386 1387 1389 1390 1389 1387 1387 1388 1389 1380 1371 1364 1364 1366 1366 1365 1363 1359 1356 1355 1351 1348 1347 1346 1343 1340 1339 1339 1337 1336 1336 1341 1342 1344 1346 1350 1353 1356 1360 1366 1372 1378 1384 1390 1396 1400
1368 1367 1367 1370 1370 1370 1374 1377 1379 1382 1386 1385 1383 1386 1388 1391 1384 1369 1361 1360 1361 1361 1361 1359 1356 1352 1348 1345 1344 1342 1339 1338 1336 1334 1333 1332 1332 1332 1331 1334 1337 1340 1343 1345 1349 1353 1358 1365 1372 1378 1384 1389 1395 1401
1357 1359 1363 1366 1366 1367 1371 1374 1376 1376 1374 1374 1377 1383 1380 1376 1366 1357 1357 1357 1356 1355 1353 1351 1348 1344 1340 1337 1335 1333 1331 1330 1329 1328 1326 1324 1325 1325 1327 1329 1332 1336 1339 1342 1346 1352 1360 1367 1372 1379 1385 1390 1395 1401
1353 1354 1358 1363 1365 1365 1365 1365 1363 1361 1362 1363 1367 1367 1363 1357 1354 1354 1353 1352 1350 1348 1345 1342 1340 1337 1333 1331 1328 1326 1325 1324 1324 1322 1321 1320 1320 1322 1322 1324 1328 1331 1334 1339 1345 1352 1359 1365 1373 1380 1387 1392 1396 1400
1348 1351 1354 1357 1359 1358 1354 1356 1356 1357 1358 1359 1359 1358 1355 1351 1350 1350 1348 1346 1343 1341 1338 1335 1332 1329 1326 1323 1320 1320 1319 1318 1317 1317 1318 1317 1318 1319 1320 1322 1324 1329 1333 1337 1342 1349 1356 1364 1372 1379 1386 1390 1395 1401
1343 1347 1350 1351 1352 1351 1352 1353 1355 1355 1355 1355 1355 1355 1351 1348 1344 1342 1340 1338 1337 1335 1333 1330 1327 1324 1321 1318 1316 1313 1311 1311 1310 1311 1313 1315 1316 1317 1319 1321 1324 1329 1333 1337 1342 1348 1356 1365 1372 1378 1385 1391 1397 1401
1342 1344 1346 1350 1350 1350 1351 1352 1353 1353 1353 1352 1350 1349 1348 1347 1343 1338 1335 1334 1333 1331 1329 1326 1322 1318 1316 1313 1310 1309 1308 1306 1306 1306 1307 1310 1312 1314 1317 1321 1324 1329 1334 1341 1347 1353 1359 1366 1373 1380 1387 1393 1397 1402
1342 1344 1345 1347 1349 1350 1350 1351 1352 1351 1350 1348 1347 1347 1346 1346 1341 1336 1333 1332 1331 1329 1327 1323 1320 1316 1312 1309 1307 1305 1304 1303 1304 1304 1306 1308 1310 1313 1318 1321 1326 1331 1337 1343 1350 1358 1365 1371 1377 1384 1390 1394 1398 1402